29.03.2024;08:00;12,21
29.03.2024;07:45;12,22
29.03.2024;07:30;12,21
29.03.2024;07:15;12,22
29.03.2024;07:00;12,22
29.03.2024;06:45;12,21
29.03.2024;06:30;12,22
29.03.2024;06:15;12,22
29.03.2024;06:00;12,22
29.03.2024;05:45;12,22
29.03.2024;05:30;12,21
29.03.2024;05:15;12,22
29.03.2024;05:00;12,21
29.03.2024;04:45;12,22
29.03.2024;04:30;12,22
29.03.2024;04:15;12,22
29.03.2024;04:00;12,21
29.03.2024;03:45;12,21
29.03.2024;03:30;12,22
29.03.2024;03:15;12,22
29.03.2024;03:00;12,22
29.03.2024;02:45;12,22
29.03.2024;02:30;12,22
29.03.2024;02:15;12,22
29.03.2024;02:00;12,21
29.03.2024;01:45;12,22
29.03.2024;01:30;12,22
29.03.2024;01:15;12,22
29.03.2024;01:00;12,22
29.03.2024;00:45;12,23
29.03.2024;00:30;12,22
29.03.2024;00:15;12,22
29.03.2024;00:00;12,22
28.03.2024;23:45;12,22
28.03.2024;23:30;12,22
28.03.2024;23:15;12,22
28.03.2024;23:00;12,22
28.03.2024;22:45;12,23
28.03.2024;22:30;12,22
28.03.2024;22:15;12,22
28.03.2024;22:00;12,22
28.03.2024;21:45;12,23
28.03.2024;21:30;12,22
28.03.2024;21:15;12,23
28.03.2024;21:00;12,22
28.03.2024;20:45;12,23
28.03.2024;20:30;12,22
28.03.2024;20:15;12,23
28.03.2024;20:00;12,22
28.03.2024;19:45;12,23
28.03.2024;19:30;12,23
28.03.2024;19:15;12,23
28.03.2024;19:00;12,22
28.03.2024;18:45;12,23
28.03.2024;18:30;12,22
28.03.2024;18:15;12,23
28.03.2024;18:00;12,22
28.03.2024;17:45;12,23
28.03.2024;17:30;12,23
28.03.2024;17:15;12,23
28.03.2024;17:00;12,22
28.03.2024;16:45;12,23
28.03.2024;16:30;12,22
28.03.2024;16:15;12,23
28.03.2024;16:00;12,22
28.03.2024;15:45;12,23
28.03.2024;15:30;12,21
28.03.2024;15:15;12,23
28.03.2024;15:00;12,21
28.03.2024;14:45;12,22
28.03.2024;14:30;12,21
28.03.2024;14:15;12,22
28.03.2024;14:00;12,22
28.03.2024;13:45;12,22
28.03.2024;13:30;12,21
28.03.2024;13:15;12,22
28.03.2024;13:00;12,21
28.03.2024;12:45;12,23
28.03.2024;12:30;12,21
28.03.2024;12:15;12,21
28.03.2024;12:00;12,22
28.03.2024;11:45;12,22
28.03.2024;11:30;12,22
28.03.2024;11:15;12,21
28.03.2024;11:00;12,21
28.03.2024;10:45;12,21
28.03.2024;10:30;12,20
28.03.2024;10:15;12,20
28.03.2024;10:00;12,20
28.03.2024;09:45;12,21
28.03.2024;09:30;12,20
28.03.2024;09:15;12,20
28.03.2024;09:00;12,20
28.03.2024;08:45;12,19
28.03.2024;08:30;12,16
28.03.2024;08:15;12,16
28.03.2024;08:00;12,21
28.03.2024;07:45;12,21
28.03.2024;07:30;12,21
28.03.2024;07:15;12,21
28.03.2024;07:00;12,21
28.03.2024;06:45;12,21
28.03.2024;06:30;12,22
28.03.2024;06:15;12,22
28.03.2024;06:00;12,21
28.03.2024;05:45;12,22
28.03.2024;05:30;12,22
28.03.2024;05:15;12,21
28.03.2024;05:00;12,22
28.03.2024;04:45;12,21
28.03.2024;04:30;12,21
28.03.2024;04:15;12,22
28.03.2024;04:00;12,21
28.03.2024;03:45;12,22
28.03.2024;03:30;12,21
28.03.2024;03:15;12,22
28.03.2024;03:00;12,22
28.03.2024;02:45;12,21
28.03.2024;02:30;12,22
28.03.2024;02:15;12,21
28.03.2024;02:00;12,22
28.03.2024;01:45;12,22
28.03.2024;01:30;12,21
28.03.2024;01:15;12,21
28.03.2024;01:00;12,22
28.03.2024;00:45;12,22
28.03.2024;00:30;12,21
28.03.2024;00:15;12,22
28.03.2024;00:00;12,21
27.03.2024;23:45;12,22
27.03.2024;23:30;12,22
27.03.2024;23:15;12,21
27.03.2024;23:00;12,21
27.03.2024;22:45;12,22
27.03.2024;22:30;12,22
27.03.2024;22:15;12,22
27.03.2024;22:00;12,21
27.03.2024;21:45;12,22
27.03.2024;21:30;12,21
27.03.2024;21:15;12,22
27.03.2024;21:00;12,22
27.03.2024;20:45;12,22
27.03.2024;20:30;12,22
27.03.2024;20:15;12,21
27.03.2024;20:00;12,22
27.03.2024;19:45;12,22
27.03.2024;19:30;12,22
27.03.2024;19:15;12,22
27.03.2024;19:00;12,22
27.03.2024;18:45;12,22
27.03.2024;18:30;12,22
27.03.2024;18:15;12,22
27.03.2024;18:00;12,22
27.03.2024;17:45;12,21
27.03.2024;17:30;12,21
27.03.2024;17:15;12,22
27.03.2024;17:00;12,21
27.03.2024;16:45;12,22
27.03.2024;16:30;12,21
27.03.2024;16:15;12,21
27.03.2024;16:00;12,21
27.03.2024;15:45;12,22
27.03.2024;15:30;12,22
27.03.2024;15:15;12,22
27.03.2024;15:00;12,21
27.03.2024;14:45;12,21
27.03.2024;14:30;12,20
27.03.2024;14:15;12,21
27.03.2024;14:00;12,21
27.03.2024;13:45;12,21
27.03.2024;13:30;12,20
27.03.2024;13:15;12,20
27.03.2024;13:00;12,21
27.03.2024;12:45;12,21
27.03.2024;12:30;12,21
27.03.2024;12:15;12,21
27.03.2024;12:00;12,21
27.03.2024;11:45;12,20
27.03.2024;11:30;12,21
27.03.2024;11:15;12,20
27.03.2024;11:00;12,20
27.03.2024;10:45;12,20
27.03.2024;10:30;12,20
27.03.2024;10:15;12,20
27.03.2024;10:00;12,20
27.03.2024;09:45;12,20
27.03.2024;09:30;12,20
27.03.2024;09:15;12,19
27.03.2024;09:00;12,18
27.03.2024;08:45;12,18
27.03.2024;08:30;12,14
27.03.2024;08:15;12,14
27.03.2024;08:00;12,20
27.03.2024;07:45;12,20
27.03.2024;07:30;12,20
27.03.2024;07:15;12,21
27.03.2024;07:00;12,21
27.03.2024;06:45;12,20
27.03.2024;06:30;12,21
27.03.2024;06:15;12,20
27.03.2024;06:00;12,20
27.03.2024;05:45;12,20
27.03.2024;05:30;12,21
27.03.2024;05:15;12,20
27.03.2024;05:00;12,21
27.03.2024;04:45;12,21
27.03.2024;04:30;12,20
27.03.2024;04:15;12,20
27.03.2024;04:00;12,21
27.03.2024;03:45;12,21
27.03.2024;03:30;12,21
27.03.2024;03:15;12,20
27.03.2024;03:00;12,21
27.03.2024;02:45;12,21
27.03.2024;02:30;12,21
27.03.2024;02:15;12,20
27.03.2024;02:00;12,21
27.03.2024;01:45;12,20
27.03.2024;01:30;12,21
27.03.2024;01:15;12,21
27.03.2024;01:00;12,21
27.03.2024;00:45;12,21
27.03.2024;00:30;12,21
27.03.2024;00:15;12,20
27.03.2024;00:00;12,20
26.03.2024;23:45;12,21
26.03.2024;23:30;12,21
26.03.2024;23:15;12,21
26.03.2024;23:00;12,21
26.03.2024;22:45;12,20
26.03.2024;22:30;12,22
26.03.2024;22:15;12,21
26.03.2024;22:00;12,21
26.03.2024;21:45;12,21
26.03.2024;21:30;12,21
26.03.2024;21:15;12,21
26.03.2024;21:00;12,21
26.03.2024;20:45;12,21
26.03.2024;20:30;12,21
26.03.2024;20:15;12,21
26.03.2024;20:00;12,21
26.03.2024;19:45;12,21
26.03.2024;19:30;12,22
26.03.2024;19:15;12,21
26.03.2024;19:00;12,21
26.03.2024;18:45;12,21
26.03.2024;18:30;12,21
26.03.2024;18:15;12,21
26.03.2024;18:00;12,21
26.03.2024;17:45;12,21
26.03.2024;17:30;12,21
26.03.2024;17:15;12,21
26.03.2024;17:00;12,21
26.03.2024;16:45;12,21
26.03.2024;16:30;12,21
26.03.2024;16:15;12,21
26.03.2024;16:00;12,21
26.03.2024;15:45;12,21
26.03.2024;15:30;12,21
26.03.2024;15:15;12,21
26.03.2024;15:00;12,21
26.03.2024;14:45;12,22
26.03.2024;14:30;12,20
26.03.2024;14:15;12,20
26.03.2024;14:00;12,20
26.03.2024;13:45;12,20
26.03.2024;13:30;12,20
26.03.2024;13:15;12,20
26.03.2024;13:00;12,21
26.03.2024;12:45;12,20
26.03.2024;12:30;12,21
26.03.2024;12:15;12,20
26.03.2024;12:00;12,20
26.03.2024;11:45;12,20
26.03.2024;11:30;12,20
26.03.2024;11:15;12,20
26.03.2024;11:00;12,20
26.03.2024;10:45;12,21
26.03.2024;10:30;12,20
26.03.2024;10:15;12,20
26.03.2024;10:00;12,20
26.03.2024;09:45;12,19
26.03.2024;09:30;12,19
26.03.2024;09:15;12,20
26.03.2024;09:00;12,18
26.03.2024;08:45;12,18
26.03.2024;08:30;12,13
26.03.2024;08:15;12,14
26.03.2024;08:00;12,20
26.03.2024;07:45;12,21
26.03.2024;07:30;12,20
26.03.2024;07:15;12,21
26.03.2024;07:00;12,20
26.03.2024;06:45;12,20
26.03.2024;06:30;12,20
26.03.2024;06:15;12,20
26.03.2024;06:00;12,21
26.03.2024;05:45;12,20
26.03.2024;05:30;12,21
26.03.2024;05:15;12,21
26.03.2024;05:00;12,20
26.03.2024;04:45;12,20
26.03.2024;04:30;12,21
26.03.2024;04:15;12,20
26.03.2024;04:00;12,21
26.03.2024;03:45;12,21
26.03.2024;03:30;12,20
26.03.2024;03:15;12,20
26.03.2024;03:00;12,21
26.03.2024;02:45;12,20
26.03.2024;02:30;12,21
26.03.2024;02:15;12,20
26.03.2024;02:00;12,21
26.03.2024;01:45;12,20
26.03.2024;01:30;12,21
26.03.2024;01:15;12,21
26.03.2024;01:00;12,21
26.03.2024;00:45;12,21
26.03.2024;00:30;12,21
26.03.2024;00:15;12,20
26.03.2024;00:00;12,21
25.03.2024;23:45;12,21
25.03.2024;23:30;12,21
25.03.2024;23:15;12,22
25.03.2024;23:00;12,21
25.03.2024;22:45;12,21
25.03.2024;22:30;12,21
25.03.2024;22:15;12,22
25.03.2024;22:00;12,22
25.03.2024;21:45;12,21
25.03.2024;21:30;12,21
25.03.2024;21:15;12,21
25.03.2024;21:00;12,21
25.03.2024;20:45;12,21
25.03.2024;20:30;12,21
25.03.2024;20:15;12,21
25.03.2024;20:00;12,21
25.03.2024;19:45;12,21
25.03.2024;19:30;12,22
25.03.2024;19:15;12,21
25.03.2024;19:00;12,21
25.03.2024;18:45;12,22
25.03.2024;18:30;12,22
25.03.2024;18:15;12,21
25.03.2024;18:00;12,22
25.03.2024;17:45;12,21
25.03.2024;17:30;12,21
25.03.2024;17:15;12,21
25.03.2024;17:00;12,21
25.03.2024;16:45;12,22
25.03.2024;16:30;12,22
25.03.2024;16:15;12,21
25.03.2024;16:00;12,22
25.03.2024;15:45;12,21
25.03.2024;15:30;12,21
25.03.2024;15:15;12,22
25.03.2024;15:00;12,21
25.03.2024;14:45;12,21
25.03.2024;14:30;12,21
25.03.2024;14:15;12,21
25.03.2024;14:00;12,21
25.03.2024;13:45;12,21
25.03.2024;13:30;12,21
25.03.2024;13:15;12,21
25.03.2024;13:00;12,21
25.03.2024;12:45;12,21
25.03.2024;12:30;12,21
25.03.2024;12:15;12,21
25.03.2024;12:00;12,20
25.03.2024;11:45;12,21
25.03.2024;11:30;12,21
25.03.2024;11:15;12,21
25.03.2024;11:00;12,20
25.03.2024;10:45;12,21
25.03.2024;10:30;12,21
25.03.2024;10:15;12,20
25.03.2024;10:00;12,21
25.03.2024;09:45;12,20
25.03.2024;09:30;12,20
25.03.2024;09:15;12,20
25.03.2024;09:00;12,20
25.03.2024;08:45;12,19
25.03.2024;08:30;12,14
25.03.2024;08:15;12,14
25.03.2024;08:00;12,21
25.03.2024;07:45;12,21
25.03.2024;07:30;12,21
25.03.2024;07:15;12,21
25.03.2024;07:00;12,21
25.03.2024;06:45;12,21
25.03.2024;06:30;12,21
25.03.2024;06:15;12,21
25.03.2024;06:00;12,21
25.03.2024;05:45;12,21
25.03.2024;05:30;12,21
25.03.2024;05:15;12,21
25.03.2024;05:00;12,22
25.03.2024;04:45;12,21
25.03.2024;04:30;12,21
25.03.2024;04:15;12,21
25.03.2024;04:00;12,22
25.03.2024;03:45;12,20
25.03.2024;03:30;12,22
25.03.2024;03:15;12,21
25.03.2024;03:00;12,21
25.03.2024;02:45;12,21
25.03.2024;02:30;12,21
25.03.2024;02:15;12,21
25.03.2024;02:00;12,21
25.03.2024;01:45;12,21
25.03.2024;01:30;12,21
25.03.2024;01:15;12,21
25.03.2024;01:00;12,21
25.03.2024;00:45;12,21
25.03.2024;00:30;12,22
25.03.2024;00:15;12,21
25.03.2024;00:00;12,21
24.03.2024;23:45;12,21
24.03.2024;23:30;12,22
24.03.2024;23:15;12,22
24.03.2024;23:00;12,22
24.03.2024;22:45;12,22
24.03.2024;22:30;12,21
24.03.2024;22:15;12,22
24.03.2024;22:00;12,21
24.03.2024;21:45;12,21
24.03.2024;21:30;12,22
24.03.2024;21:15;12,21
24.03.2024;21:00;12,22
24.03.2024;20:45;12,22
24.03.2024;20:30;12,22
24.03.2024;20:15;12,22
24.03.2024;20:00;12,22
24.03.2024;19:45;12,22
24.03.2024;19:30;12,22
24.03.2024;19:15;12,22
24.03.2024;19:00;12,22
24.03.2024;18:45;12,22
24.03.2024;18:30;12,22
24.03.2024;18:15;12,22
24.03.2024;18:00;12,22
24.03.2024;17:45;12,22
24.03.2024;17:30;12,22
24.03.2024;17:15;12,22
24.03.2024;17:00;12,22
24.03.2024;16:45;12,22
24.03.2024;16:30;12,22
24.03.2024;16:15;12,22
24.03.2024;16:00;12,22
24.03.2024;15:45;12,22
24.03.2024;15:30;12,22
24.03.2024;15:15;12,22
24.03.2024;15:00;12,22
24.03.2024;14:45;12,21
24.03.2024;14:30;12,22
24.03.2024;14:15;12,22
24.03.2024;14:00;12,22
24.03.2024;13:45;12,22
24.03.2024;13:30;12,21
24.03.2024;13:15;12,21
24.03.2024;13:00;12,22
24.03.2024;12:45;12,21
24.03.2024;12:30;12,22
24.03.2024;12:15;12,22
24.03.2024;12:00;12,22
24.03.2024;11:45;12,21
24.03.2024;11:30;12,22
24.03.2024;11:15;12,21
24.03.2024;11:00;12,22
24.03.2024;10:45;12,21
24.03.2024;10:30;12,22
24.03.2024;10:15;12,22
24.03.2024;10:00;12,21
24.03.2024;09:45;12,22
24.03.2024;09:30;12,21
24.03.2024;09:15;12,21
24.03.2024;09:00;12,21
24.03.2024;08:45;12,20
24.03.2024;08:30;12,16
24.03.2024;08:15;12,16
24.03.2024;08:00;12,22
24.03.2024;07:45;12,22
24.03.2024;07:30;12,22
24.03.2024;07:15;12,22
24.03.2024;07:00;12,22
24.03.2024;06:45;12,22
24.03.2024;06:30;12,22
24.03.2024;06:15;12,23
24.03.2024;06:00;12,22
24.03.2024;05:45;12,22
24.03.2024;05:30;12,22
24.03.2024;05:15;12,22
24.03.2024;05:00;12,22
24.03.2024;04:45;12,22
24.03.2024;04:30;12,22
24.03.2024;04:15;12,22
24.03.2024;04:00;12,22
24.03.2024;03:45;12,22
24.03.2024;03:30;12,22
24.03.2024;03:15;12,23
24.03.2024;03:00;12,23
24.03.2024;02:45;12,22
24.03.2024;02:30;12,23
24.03.2024;02:15;12,22
24.03.2024;02:00;12,22
24.03.2024;01:45;12,22
24.03.2024;01:30;12,23
24.03.2024;01:15;12,22
24.03.2024;01:00;12,22
24.03.2024;00:45;12,22
24.03.2024;00:30;12,22
24.03.2024;00:15;12,22
24.03.2024;00:00;12,22
23.03.2024;23:45;12,22
23.03.2024;23:30;12,23
23.03.2024;23:15;12,22
23.03.2024;23:00;12,22
23.03.2024;22:45;12,23
23.03.2024;22:30;12,22
23.03.2024;22:15;12,22
23.03.2024;22:00;12,22
23.03.2024;21:45;12,22
23.03.2024;21:30;12,23
23.03.2024;21:15;12,22
23.03.2024;21:00;12,23
23.03.2024;20:45;12,22
23.03.2024;20:30;12,22
23.03.2024;20:15;12,22
23.03.2024;20:00;12,23
23.03.2024;19:45;12,23
23.03.2024;19:30;12,23
23.03.2024;19:15;12,22
23.03.2024;19:00;12,23
23.03.2024;18:45;12,23
23.03.2024;18:30;12,23
23.03.2024;18:15;12,23
23.03.2024;18:00;12,23
23.03.2024;17:45;12,23
23.03.2024;17:30;12,23
23.03.2024;17:15;12,23
23.03.2024;17:00;12,22
23.03.2024;16:45;12,23
23.03.2024;16:30;12,22
23.03.2024;16:15;12,23
23.03.2024;16:00;12,22
23.03.2024;15:45;12,22
23.03.2024;15:30;12,23
23.03.2024;15:15;12,23
23.03.2024;15:00;12,23
23.03.2024;14:45;12,23
23.03.2024;14:30;12,23
23.03.2024;14:15;12,22
23.03.2024;14:00;12,23
23.03.2024;13:45;12,22
23.03.2024;13:30;12,23
23.03.2024;13:15;12,23
23.03.2024;13:00;12,22
23.03.2024;12:45;12,23
23.03.2024;12:30;12,23
23.03.2024;12:15;12,23
23.03.2024;12:00;12,22
23.03.2024;11:45;12,22
23.03.2024;11:30;12,22
23.03.2024;11:15;12,23
23.03.2024;11:00;12,22
23.03.2024;10:45;12,23
23.03.2024;10:30;12,22
23.03.2024;10:15;12,22
23.03.2024;10:00;12,22
23.03.2024;09:45;12,22
23.03.2024;09:30;12,22
23.03.2024;09:15;12,21
23.03.2024;09:00;12,21
23.03.2024;08:45;12,20
23.03.2024;08:30;12,16
23.03.2024;08:15;12,17
23.03.2024;08:00;12,23
23.03.2024;07:45;12,23
23.03.2024;07:30;12,22
23.03.2024;07:15;12,24
23.03.2024;07:00;12,23
23.03.2024;06:45;12,22
23.03.2024;06:30;12,23
23.03.2024;06:15;12,23
23.03.2024;06:00;12,22
23.03.2024;05:45;12,23
23.03.2024;05:30;12,24
23.03.2024;05:15;12,23
23.03.2024;05:00;12,23
23.03.2024;04:45;12,22
23.03.2024;04:30;12,23
23.03.2024;04:15;12,24
23.03.2024;04:00;12,23
23.03.2024;03:45;12,23
23.03.2024;03:30;12,22
23.03.2024;03:15;12,23
23.03.2024;03:00;12,23
23.03.2024;02:45;12,23
23.03.2024;02:30;12,23
23.03.2024;02:15;12,23
23.03.2024;02:00;12,22
23.03.2024;01:45;12,23
23.03.2024;01:30;12,22
23.03.2024;01:15;12,23
23.03.2024;01:00;12,22
23.03.2024;00:45;12,23
23.03.2024;00:30;12,23
23.03.2024;00:15;12,23
23.03.2024;00:00;12,23
22.03.2024;23:45;12,23
22.03.2024;23:30;12,22
22.03.2024;23:15;12,23
22.03.2024;23:00;12,23
22.03.2024;22:45;12,24
22.03.2024;22:30;12,23
22.03.2024;22:15;12,23
22.03.2024;22:00;12,22
22.03.2024;21:45;12,23
22.03.2024;21:30;12,23
22.03.2024;21:15;12,22
22.03.2024;21:00;12,23
22.03.2024;20:45;12,22
22.03.2024;20:30;12,23
22.03.2024;20:15;12,23
22.03.2024;20:00;12,23
22.03.2024;19:45;12,23
22.03.2024;19:30;12,23
22.03.2024;19:15;12,23
22.03.2024;19:00;12,23
22.03.2024;18:45;12,23
22.03.2024;18:30;12,23
22.03.2024;18:15;12,22
22.03.2024;18:00;12,23
22.03.2024;17:45;12,23
22.03.2024;17:30;12,23
22.03.2024;17:15;12,23
22.03.2024;17:00;12,22
22.03.2024;16:45;12,23
22.03.2024;16:30;12,23
22.03.2024;16:15;12,23
22.03.2024;16:00;12,23
22.03.2024;15:45;12,23
22.03.2024;15:30;12,23
22.03.2024;15:15;12,23
22.03.2024;15:00;12,22
22.03.2024;14:45;12,23
22.03.2024;14:30;12,23
22.03.2024;14:15;12,23
22.03.2024;14:00;12,22
22.03.2024;13:45;12,23
22.03.2024;13:30;12,22
22.03.2024;13:15;12,23
22.03.2024;13:00;12,23
22.03.2024;12:45;12,23
22.03.2024;12:30;12,23
22.03.2024;12:15;12,24
22.03.2024;12:00;12,23
22.03.2024;11:45;12,22
22.03.2024;11:30;12,23
22.03.2024;11:15;12,22
22.03.2024;11:00;12,23
22.03.2024;10:45;12,22
22.03.2024;10:30;12,22
22.03.2024;10:15;12,22
22.03.2024;10:00;12,22
22.03.2024;09:45;12,22
22.03.2024;09:30;12,21
22.03.2024;09:15;12,22
22.03.2024;09:00;12,21
22.03.2024;08:45;12,21
22.03.2024;08:30;12,16
22.03.2024;08:15;12,18
22.03.2024;08:00;12,24
22.03.2024;07:45;12,23
22.03.2024;07:30;12,23
22.03.2024;07:15;12,23
22.03.2024;07:00;12,22
22.03.2024;06:45;12,23
22.03.2024;06:30;12,23
22.03.2024;06:15;12,23
22.03.2024;06:00;12,23
22.03.2024;05:45;12,23
22.03.2024;05:30;12,23
22.03.2024;05:15;12,23
22.03.2024;05:00;12,24
22.03.2024;04:45;12,23
22.03.2024;04:30;12,22
22.03.2024;04:15;12,23
22.03.2024;04:00;12,23
22.03.2024;03:45;12,23
22.03.2024;03:30;12,23
22.03.2024;03:15;12,23
22.03.2024;03:00;12,23
22.03.2024;02:45;12,23
22.03.2024;02:30;12,23
22.03.2024;02:15;12,24
22.03.2024;02:00;12,23
22.03.2024;01:45;12,23
22.03.2024;01:30;12,23
22.03.2024;01:15;12,23
22.03.2024;01:00;12,23
22.03.2024;00:45;12,23
22.03.2024;00:30;12,23
22.03.2024;00:15;12,23
22.03.2024;00:00;12,23
21.03.2024;23:45;12,23
21.03.2024;23:30;12,23
21.03.2024;23:15;12,24
21.03.2024;23:00;12,23
21.03.2024;22:45;12,23
21.03.2024;22:30;12,24
21.03.2024;22:15;12,23
21.03.2024;22:00;12,24
21.03.2024;21:45;12,24
21.03.2024;21:30;12,23
21.03.2024;21:15;12,24
21.03.2024;21:00;12,24
21.03.2024;20:45;12,24
21.03.2024;20:30;12,24
21.03.2024;20:15;12,24
21.03.2024;20:00;12,24
21.03.2024;19:45;12,24
21.03.2024;19:30;12,24
21.03.2024;19:15;12,23
21.03.2024;19:00;12,23
21.03.2024;18:45;12,23
21.03.2024;18:30;12,24
21.03.2024;18:15;12,24
21.03.2024;18:00;12,24
21.03.2024;17:45;12,24
21.03.2024;17:30;12,24
21.03.2024;17:15;12,24
21.03.2024;17:00;12,23
21.03.2024;16:45;12,24
21.03.2024;16:30;12,24
21.03.2024;16:15;12,24
21.03.2024;16:00;12,24
21.03.2024;15:45;12,24
21.03.2024;15:30;12,24
21.03.2024;15:15;12,24
21.03.2024;15:00;12,23
21.03.2024;14:45;12,24
21.03.2024;14:30;12,24
21.03.2024;14:15;12,24
21.03.2024;14:00;12,23
21.03.2024;13:45;12,24
21.03.2024;13:30;12,23
21.03.2024;13:15;12,24
21.03.2024;13:00;12,23
21.03.2024;12:45;12,23
21.03.2024;12:30;12,23
21.03.2024;12:15;12,23
21.03.2024;12:00;12,23
21.03.2024;11:45;12,23
21.03.2024;11:30;12,23
21.03.2024;11:15;12,23
21.03.2024;11:00;12,23
21.03.2024;10:45;12,23
21.03.2024;10:30;12,22
21.03.2024;10:15;12,23
21.03.2024;10:00;12,22
21.03.2024;09:45;12,23
21.03.2024;09:30;12,22
21.03.2024;09:15;12,22
21.03.2024;09:00;12,22
21.03.2024;08:45;12,21
21.03.2024;08:30;12,17
21.03.2024;08:15;12,14
21.03.2024;08:00;12,24
21.03.2024;07:45;12,23
21.03.2024;07:30;12,23
21.03.2024;07:15;12,24
21.03.2024;07:00;12,24
21.03.2024;06:45;12,23
21.03.2024;06:30;12,23
21.03.2024;06:15;12,24
21.03.2024;06:00;12,23
21.03.2024;05:45;12,23
21.03.2024;05:30;12,23
21.03.2024;05:15;12,23
21.03.2024;05:00;12,24
21.03.2024;04:45;12,24
21.03.2024;04:30;12,24
21.03.2024;04:15;12,23
21.03.2024;04:00;12,24
21.03.2024;03:45;12,24
21.03.2024;03:30;12,24
21.03.2024;03:15;12,23
21.03.2024;03:00;12,23
21.03.2024;02:45;12,23
21.03.2024;02:30;12,23
21.03.2024;02:15;12,24
21.03.2024;02:00;12,24
21.03.2024;01:45;12,23
21.03.2024;01:30;12,23
21.03.2024;01:15;12,23
21.03.2024;01:00;12,23
21.03.2024;00:45;12,24
21.03.2024;00:30;12,24
21.03.2024;00:15;12,23
21.03.2024;00:00;12,23
20.03.2024;23:45;12,23
20.03.2024;23:30;12,23
20.03.2024;23:15;12,24
20.03.2024;23:00;12,24
20.03.2024;22:45;12,23
20.03.2024;22:30;12,24
20.03.2024;22:15;12,24
20.03.2024;22:00;12,24
20.03.2024;21:45;12,24
20.03.2024;21:30;12,24
20.03.2024;21:15;12,23
20.03.2024;21:00;12,23
20.03.2024;20:45;12,23
20.03.2024;20:30;12,24
20.03.2024;20:15;12,24
20.03.2024;20:00;12,23
20.03.2024;19:45;12,24
20.03.2024;19:30;12,24
20.03.2024;19:15;12,23
20.03.2024;19:00;12,23
20.03.2024;18:45;12,23
20.03.2024;18:30;12,24
20.03.2024;18:15;12,24
20.03.2024;18:00;12,23
20.03.2024;17:45;12,24
20.03.2024;17:30;12,24
20.03.2024;17:15;12,23
20.03.2024;17:00;12,23
20.03.2024;16:45;12,24
20.03.2024;16:30;12,23
20.03.2024;16:15;12,23
20.03.2024;16:00;12,23
20.03.2024;15:45;12,23
20.03.2024;15:30;12,23
20.03.2024;15:15;12,23
20.03.2024;15:00;12,24
20.03.2024;14:45;12,24
20.03.2024;14:30;12,24
20.03.2024;14:15;12,23
20.03.2024;14:00;12,23
20.03.2024;13:45;12,23
20.03.2024;13:30;12,24
20.03.2024;13:15;12,23
20.03.2024;13:00;12,23
20.03.2024;12:45;12,24
20.03.2024;12:30;12,23
20.03.2024;12:15;12,24
20.03.2024;12:00;12,23
20.03.2024;11:45;12,23
20.03.2024;11:30;12,23
20.03.2024;11:15;12,24
20.03.2024;11:00;12,23
20.03.2024;10:45;12,23
20.03.2024;10:30;12,23
20.03.2024;10:15;12,23
20.03.2024;10:00;12,22
20.03.2024;09:45;12,23
20.03.2024;09:30;12,22
20.03.2024;09:15;12,22
20.03.2024;09:00;12,22
20.03.2024;08:45;12,22
20.03.2024;08:30;12,18
20.03.2024;08:15;12,18
20.03.2024;08:00;12,23
20.03.2024;07:45;12,23
20.03.2024;07:30;12,23
20.03.2024;07:15;12,23
20.03.2024;07:00;12,23
20.03.2024;06:45;12,24
20.03.2024;06:30;12,24
20.03.2024;06:15;12,24
20.03.2024;06:00;12,24
20.03.2024;05:45;12,23
20.03.2024;05:30;12,24
20.03.2024;05:15;12,24
20.03.2024;05:00;12,23
20.03.2024;04:45;12,23
20.03.2024;04:30;12,24
20.03.2024;04:15;12,24
20.03.2024;04:00;12,23
20.03.2024;03:45;12,23
20.03.2024;03:30;12,23
20.03.2024;03:15;12,24
20.03.2024;03:00;12,23
20.03.2024;02:45;12,23
20.03.2024;02:30;12,24
20.03.2024;02:15;12,23
20.03.2024;02:00;12,24
20.03.2024;01:45;12,23
20.03.2024;01:30;12,23
20.03.2024;01:15;12,23
20.03.2024;01:00;12,23
20.03.2024;00:45;12,24
20.03.2024;00:30;12,23
20.03.2024;00:15;12,24
20.03.2024;00:00;12,24
19.03.2024;23:45;12,24
19.03.2024;23:30;12,23
19.03.2024;23:15;12,23
19.03.2024;23:00;12,24
19.03.2024;22:45;12,23
19.03.2024;22:30;12,23
19.03.2024;22:15;12,23
19.03.2024;22:00;12,23
19.03.2024;21:45;12,24
19.03.2024;21:30;12,24
19.03.2024;21:15;12,24
19.03.2024;21:00;12,24
19.03.2024;20:45;12,23
19.03.2024;20:30;12,23
19.03.2024;20:15;12,23
19.03.2024;20:00;12,23
19.03.2024;19:45;12,23
19.03.2024;19:30;12,24
19.03.2024;19:15;12,23
19.03.2024;19:00;12,24
19.03.2024;18:45;12,24
19.03.2024;18:30;12,23
19.03.2024;18:15;12,24
19.03.2024;18:00;12,24
19.03.2024;17:45;12,23
19.03.2024;17:30;12,23
19.03.2024;17:15;12,23
19.03.2024;17:00;12,24
19.03.2024;16:45;12,24
19.03.2024;16:30;12,23
19.03.2024;16:15;12,23
19.03.2024;16:00;12,24
19.03.2024;15:45;12,23
19.03.2024;15:30;12,24
19.03.2024;15:15;12,23
19.03.2024;15:00;12,23
19.03.2024;14:45;12,23
19.03.2024;14:30;12,23
19.03.2024;14:15;12,23
19.03.2024;14:00;12,23
19.03.2024;13:45;12,23
19.03.2024;13:30;12,23
19.03.2024;13:15;12,22
19.03.2024;13:00;12,22
19.03.2024;12:45;12,22
19.03.2024;12:30;12,22
19.03.2024;12:15;12,23
19.03.2024;12:00;12,22
19.03.2024;11:45;12,22
19.03.2024;11:30;12,22
19.03.2024;11:15;12,22
19.03.2024;11:00;12,22
19.03.2024;10:45;12,22
19.03.2024;10:30;12,22
19.03.2024;10:15;12,22
19.03.2024;10:00;12,22
19.03.2024;09:45;12,21
19.03.2024;09:30;12,21
19.03.2024;09:15;12,20
19.03.2024;09:00;12,21
19.03.2024;08:45;12,20
19.03.2024;08:30;12,14
19.03.2024;08:15;12,15
19.03.2024;08:00;12,22
19.03.2024;07:45;12,22
19.03.2024;07:30;12,22
19.03.2024;07:15;12,22
19.03.2024;07:00;12,22
19.03.2024;06:45;12,22
19.03.2024;06:30;12,22
19.03.2024;06:15;12,22
19.03.2024;06:00;12,22
19.03.2024;05:45;12,22
19.03.2024;05:30;12,22
19.03.2024;05:15;12,23
19.03.2024;05:00;12,22
19.03.2024;04:45;12,22
19.03.2024;04:30;12,22
19.03.2024;04:15;12,22
19.03.2024;04:00;12,22
19.03.2024;03:45;12,22
19.03.2024;03:30;12,23
19.03.2024;03:15;12,23
19.03.2024;03:00;12,22
19.03.2024;02:45;12,23
19.03.2024;02:30;12,23
19.03.2024;02:15;12,23
19.03.2024;02:00;12,23
19.03.2024;01:45;12,23
19.03.2024;01:30;12,23
19.03.2024;01:15;12,23
19.03.2024;01:00;12,23
19.03.2024;00:45;12,23
19.03.2024;00:30;12,23
19.03.2024;00:15;12,23
19.03.2024;00:00;12,24
18.03.2024;23:45;12,23
18.03.2024;23:30;12,23
18.03.2024;23:15;12,23
18.03.2024;23:00;12,23
18.03.2024;22:45;12,23
18.03.2024;22:30;12,23
18.03.2024;22:15;12,23